Location: Newark
(43.4306°N, 0.3089°E)
Time: 05:06:11
(UTC+00:00)

Vanguard 1 Rocket - Pass Details

Date: 02 September 2019
Orbit: 652 x 4225 km, 34.3° (Epoch: 15 September)

Event Time Altitude Azimuth Distance (km) Brightness Sun altitude
Exits shadow 04:21:52 12° 218° (SW) 2,127 8.8 -11.5°
Maximum altitude 04:23:26 13° 198° (SSW) 2,140 8.9 -11.2°
Drops below altitude 10° 04:25:58 10° 171° (S) 2,577 9.6 -10.8°
Sets 04:30:47 0° 146° (SE) 4,082 10.9 -10.0°
